Hourly Data Report for October 28, 2020

SHEARWATER RCS
NOVA SCOTIA
Current Station Operator: ECCC - MSC

44°37'47.000" N
63°30'48.000" W
24.00 m
8205092
71264
AAW

Download Data

Hourly Data (October 2020)
Hourly Data Report for October 28, 2020
TIME
LST
Temp Definition
°C
Dew Point Definition
°C
Rel Hum Definition
%
Precip. Amount Definition
mm

Wind Dir Definition
10's deg

Wind Spd Definition
km/h
Visibility Definition
km
Stn Press Definition
kPa
Hmdx Definition


Wind Chill Definition


Weather Definition


00:00 3.2 -1.9 70 0.0 31 10   101.49     LegendNANA
01:00 3.1 -1.9 70 0.0 31 9   101.47     LegendNANA
02:00 2.9 -2.0 70 0.0 31 12   101.54     LegendNANA
03:00 2.3 -2.1 73 0.0 33 9   101.55     LegendNANA
04:00 2.0 -2.1 74 0.0 32 9   101.59     LegendNANA
05:00 1.0 -2.1 79 0.0 32 6   101.63     LegendNANA
06:00 0.7 -2.1 82 0.0 35 8   101.70     LegendNANA
07:00 0.0 -3.6 77 0.0 36 8   101.70   -3 LegendNANA
08:00 0.7 -3.5 74 0.0 36 8   101.79     LegendNANA
09:00 1.9 -4.0 65 0.0 33 10   101.78     LegendNANA
10:00 2.9 -4.2 60 0.0 31 15   101.73     LegendNANA
11:00 4.5 -3.2 57 0.0 29 9   101.70     LegendNANA
12:00 4.0 -4.0 56 0.0 30 8   101.60     LegendNANA
13:00 5.4 -3.2 54 0.0 29 9   101.51     LegendNANA
14:00 6.1 -3.1 52 0.0 31 2   101.46     LegendNANA
15:00 5.1 -2.6 58 0.0 18 5   101.45     LegendNANA
16:00 5.5 -2.1 58 0.0 23 11   101.42     LegendNANA
17:00 4.7 -1.6 64 0.0 23 7   101.40     LegendNANA
18:00 4.4 -0.3 72 0.0 23 4   101.35     LegendNANA
19:00 3.8 0.1 77 0.0 34 3   101.27     LegendNANA
20:00 2.2 -0.1 85 0.0 6 4   101.19     LegendNANA
21:00 3.0 0.9 85 0.0 4 3   101.19     LegendNANA
22:00 3.5 0.4 80 0.0 3 4   101.13     LegendNANA
23:00 3.9 0.6 79 0.0 2 2   101.09     LegendNANA

Notes on Data Quality.

Legend

  • E = Estimated
  • M = Missing
  • NA = Not Available*
  • [empty] = Indicates an unobserved value
Date modified: